Year,Month,Day,Hour,Minute,Value (Times are PST for temperature in C)
2013,09,11,00,00,16.10
2013,09,11,00,01,16.10
2013,09,11,00,02,16.10
2013,09,11,00,03,16.10
2013,09,11,00,04,16.10
2013,09,11,00,05,16.10
2013,09,11,00,06,16.10
2013,09,11,00,07,16.10
2013,09,11,00,08,16.10
2013,09,11,00,09,16.10
2013,09,11,00,10,16.00
2013,09,11,00,11,16.00
2013,09,11,00,12,16.00
2013,09,11,00,13,16.00
2013,09,11,00,14,16.00
2013,09,11,00,15,16.00
2013,09,11,00,16,16.00
2013,09,11,00,17,16.00
2013,09,11,00,18,15.90
2013,09,11,00,19,15.90
2013,09,11,00,20,15.90
2013,09,11,00,21,15.90
2013,09,11,00,22,15.90
2013,09,11,00,23,15.90
2013,09,11,00,24,15.90
2013,09,11,00,25,15.90
2013,09,11,00,26,15.90
2013,09,11,00,27,15.90
2013,09,11,00,28,15.90
2013,09,11,00,29,15.90
2013,09,11,00,30,15.80
2013,09,11,00,31,15.80
2013,09,11,00,32,15.80
2013,09,11,00,33,15.80
2013,09,11,00,34,15.80
2013,09,11,00,35,15.80
2013,09,11,00,36,15.80
2013,09,11,00,37,15.80
2013,09,11,00,38,15.80
2013,09,11,00,39,15.80
2013,09,11,00,40,15.80
2013,09,11,00,41,15.80
2013,09,11,00,42,15.80
2013,09,11,00,43,15.80
2013,09,11,00,44,15.80
2013,09,11,00,45,15.70
2013,09,11,00,46,15.70
2013,09,11,00,47,15.70
2013,09,11,00,48,15.70
2013,09,11,00,49,15.70
2013,09,11,00,50,15.70
2013,09,11,00,51,15.70
2013,09,11,00,52,15.70
2013,09,11,00,53,15.70
2013,09,11,00,54,15.70
2013,09,11,00,55,15.70
2013,09,11,00,56,15.70
2013,09,11,00,57,15.70
2013,09,11,00,58,15.70
2013,09,11,00,59,15.70
2013,09,11,01,00,15.60
2013,09,11,01,01,15.60
2013,09,11,01,02,15.60
2013,09,11,01,03,15.60
2013,09,11,01,04,15.60
2013,09,11,01,05,15.60
2013,09,11,01,06,15.60
2013,09,11,01,07,15.60
2013,09,11,01,08,15.60
2013,09,11,01,09,15.60
2013,09,11,01,10,15.60
2013,09,11,01,11,15.60
2013,09,11,01,12,15.60
2013,09,11,01,13,15.60
2013,09,11,01,14,15.60
2013,09,11,01,15,15.60
2013,09,11,01,16,15.60
2013,09,11,01,17,15.50
2013,09,11,01,18,15.60
2013,09,11,01,19,15.50
2013,09,11,01,20,15.50
2013,09,11,01,21,15.50
2013,09,11,01,22,15.50
2013,09,11,01,23,15.50
2013,09,11,01,24,15.50
2013,09,11,01,25,15.40
2013,09,11,01,26,15.40
2013,09,11,01,27,15.40
2013,09,11,01,28,15.40
2013,09,11,01,29,15.40
2013,09,11,01,30,15.40
2013,09,11,01,31,15.40
2013,09,11,01,32,15.40
2013,09,11,01,33,15.40
2013,09,11,01,34,15.40
2013,09,11,01,35,15.40
2013,09,11,01,36,15.40
2013,09,11,01,37,15.30
2013,09,11,01,38,15.40
2013,09,11,01,39,15.40
2013,09,11,01,40,15.40
2013,09,11,01,41,15.40
2013,09,11,01,42,15.40
2013,09,11,01,43,15.40
2013,09,11,01,44,15.40
2013,09,11,01,45,15.40
2013,09,11,01,46,15.40
2013,09,11,01,47,15.30
2013,09,11,01,48,15.30
2013,09,11,01,49,15.30
2013,09,11,01,50,15.30
2013,09,11,01,51,15.30
2013,09,11,01,52,15.30
2013,09,11,01,53,15.30
2013,09,11,01,54,15.30
2013,09,11,01,55,15.30
2013,09,11,01,56,15.30
2013,09,11,01,57,15.30
2013,09,11,01,58,15.30
2013,09,11,01,59,15.30
2013,09,11,02,00,15.20
2013,09,11,02,01,15.20
2013,09,11,02,02,15.20
2013,09,11,02,03,15.20
2013,09,11,02,04,15.20
2013,09,11,02,05,15.20
2013,09,11,02,06,15.20
2013,09,11,02,07,15.10
2013,09,11,02,08,15.10
2013,09,11,02,09,15.10
2013,09,11,02,10,15.10
2013,09,11,02,11,15.10
2013,09,11,02,12,15.00
2013,09,11,02,13,15.00
2013,09,11,02,14,15.00
2013,09,11,02,15,15.00
2013,09,11,02,16,15.00
2013,09,11,02,17,15.00
2013,09,11,02,18,15.00
2013,09,11,02,19,15.00
2013,09,11,02,20,15.00
2013,09,11,02,21,15.00
2013,09,11,02,22,15.00
2013,09,11,02,23,15.00
2013,09,11,02,24,15.00
2013,09,11,02,25,15.00
2013,09,11,02,26,15.00
2013,09,11,02,27,15.00
2013,09,11,02,28,15.00
2013,09,11,02,29,15.00
2013,09,11,02,30,15.00
2013,09,11,02,31,15.00
2013,09,11,02,32,15.00
2013,09,11,02,33,15.00
2013,09,11,02,34,15.00
2013,09,11,02,35,15.00
2013,09,11,02,36,15.00
2013,09,11,02,37,15.00
2013,09,11,02,38,15.00
2013,09,11,02,39,15.00
2013,09,11,02,40,15.00
2013,09,11,02,41,15.00
2013,09,11,02,42,15.00
2013,09,11,02,43,15.00
2013,09,11,02,44,15.00
2013,09,11,02,45,15.00
2013,09,11,02,46,15.00
2013,09,11,02,47,15.00
2013,09,11,02,48,15.00
2013,09,11,02,49,15.00
2013,09,11,02,50,15.00
2013,09,11,02,51,15.00
2013,09,11,02,52,15.00
2013,09,11,02,53,15.00
2013,09,11,02,54,15.00
2013,09,11,02,55,15.00
2013,09,11,02,56,15.00
2013,09,11,02,57,15.00
2013,09,11,02,58,15.00
2013,09,11,02,59,15.00
2013,09,11,03,00,15.00
2013,09,11,03,01,15.00
2013,09,11,03,02,15.00
2013,09,11,03,03,15.00
2013,09,11,03,04,15.00
2013,09,11,03,05,15.00
2013,09,11,03,06,15.00
2013,09,11,03,07,15.00
2013,09,11,03,08,15.00
2013,09,11,03,09,15.00
2013,09,11,03,10,15.00
2013,09,11,03,11,15.00
2013,09,11,03,12,15.00
2013,09,11,03,13,15.00
2013,09,11,03,14,15.00
2013,09,11,03,15,15.00
2013,09,11,03,16,15.00
2013,09,11,03,17,15.00
2013,09,11,03,18,15.00
2013,09,11,03,19,15.00
2013,09,11,03,20,15.00
2013,09,11,03,21,15.00
2013,09,11,03,22,15.00
2013,09,11,03,23,15.00
2013,09,11,03,24,15.00
2013,09,11,03,25,15.00
2013,09,11,03,26,15.00
2013,09,11,03,27,15.00
2013,09,11,03,28,15.00
2013,09,11,03,29,15.00
2013,09,11,03,30,15.00
2013,09,11,03,31,15.00
2013,09,11,03,32,15.00
2013,09,11,03,33,15.00
2013,09,11,03,34,15.00
2013,09,11,03,35,15.00
2013,09,11,03,36,15.00
2013,09,11,03,37,15.00
2013,09,11,03,38,15.00
2013,09,11,03,39,15.00
2013,09,11,03,40,15.00
2013,09,11,03,41,15.00
2013,09,11,03,42,15.00
2013,09,11,03,43,15.00
2013,09,11,03,44,14.90
2013,09,11,03,45,14.90
2013,09,11,03,46,14.90
2013,09,11,03,47,14.90
2013,09,11,03,48,14.90
2013,09,11,03,49,14.90
2013,09,11,03,50,14.90
2013,09,11,03,51,14.90
2013,09,11,03,52,14.90
2013,09,11,03,53,14.90
2013,09,11,03,54,14.90
2013,09,11,03,55,15.00
2013,09,11,03,56,15.00
2013,09,11,03,57,15.00
2013,09,11,03,58,15.00
2013,09,11,03,59,15.00
2013,09,11,04,00,15.00
2013,09,11,04,01,15.00
2013,09,11,04,02,15.00
2013,09,11,04,03,15.00
2013,09,11,04,04,14.90
2013,09,11,04,05,14.90
2013,09,11,04,06,14.90
2013,09,11,04,07,14.90
2013,09,11,04,08,14.90
2013,09,11,04,09,14.90
2013,09,11,04,10,15.00
2013,09,11,04,11,15.00
2013,09,11,04,12,14.90
2013,09,11,04,13,14.90
2013,09,11,04,14,14.90
2013,09,11,04,15,14.90
2013,09,11,04,16,14.90
2013,09,11,04,17,14.90
2013,09,11,04,18,14.90
2013,09,11,04,19,14.90
2013,09,11,04,20,14.90
2013,09,11,04,21,14.80
2013,09,11,04,22,14.80
2013,09,11,04,23,14.80
2013,09,11,04,24,14.70
2013,09,11,04,25,14.70
2013,09,11,04,26,14.70
2013,09,11,04,27,14.70
2013,09,11,04,28,14.70
2013,09,11,04,29,14.60
2013,09,11,04,30,14.60
2013,09,11,04,31,14.60
2013,09,11,04,32,14.60
2013,09,11,04,33,14.60
2013,09,11,04,34,14.60
2013,09,11,04,35,14.50
2013,09,11,04,36,14.50
2013,09,11,04,37,14.50
2013,09,11,04,38,14.50
2013,09,11,04,39,14.40
2013,09,11,04,40,14.40
2013,09,11,04,41,14.40
2013,09,11,04,42,14.40
2013,09,11,04,43,14.40
2013,09,11,04,44,14.40
2013,09,11,04,45,14.40
2013,09,11,04,46,14.40
2013,09,11,04,47,14.40
2013,09,11,04,48,14.40
2013,09,11,04,49,14.40
2013,09,11,04,50,14.30
2013,09,11,04,51,14.30
2013,09,11,04,52,14.30
2013,09,11,04,53,14.30
2013,09,11,04,54,14.30
2013,09,11,04,55,14.30
2013,09,11,04,56,14.30
2013,09,11,04,57,14.30
2013,09,11,04,58,14.30
2013,09,11,04,59,14.30
2013,09,11,05,00,14.30
2013,09,11,05,01,14.30
2013,09,11,05,02,14.30
2013,09,11,05,03,14.30
2013,09,11,05,04,14.30
2013,09,11,05,05,14.30
2013,09,11,05,06,14.30
2013,09,11,05,07,14.30
2013,09,11,05,08,14.30
2013,09,11,05,09,14.30
2013,09,11,05,10,14.30
2013,09,11,05,11,14.30
2013,09,11,05,12,14.30
2013,09,11,05,13,14.20
2013,09,11,05,14,14.20
2013,09,11,05,15,14.20
2013,09,11,05,16,14.20
2013,09,11,05,17,14.20
2013,09,11,05,18,14.20
2013,09,11,05,19,14.20
2013,09,11,05,20,14.20
2013,09,11,05,21,14.20
2013,09,11,05,22,14.20
2013,09,11,05,23,14.20
2013,09,11,05,24,14.20
2013,09,11,05,25,14.20
2013,09,11,05,26,14.20
2013,09,11,05,27,14.20
2013,09,11,05,28,14.20
2013,09,11,05,29,14.10
2013,09,11,05,30,14.10
2013,09,11,05,31,14.10
2013,09,11,05,32,14.10
2013,09,11,05,33,14.10
2013,09,11,05,34,14.10
2013,09,11,05,35,14.10
2013,09,11,05,36,14.10
2013,09,11,05,37,14.10
2013,09,11,05,38,14.10
2013,09,11,05,39,14.10
2013,09,11,05,40,14.10
2013,09,11,05,41,14.00
2013,09,11,05,42,14.00
2013,09,11,05,43,14.00
2013,09,11,05,44,14.00
2013,09,11,05,45,14.00
2013,09,11,05,46,14.00
2013,09,11,05,47,14.00
2013,09,11,05,48,14.00
2013,09,11,05,49,14.00
2013,09,11,05,50,14.00
2013,09,11,05,51,14.00
2013,09,11,05,52,14.00
2013,09,11,05,53,14.00
2013,09,11,05,54,14.00
2013,09,11,05,55,14.00
2013,09,11,05,56,14.00
2013,09,11,05,57,14.00
2013,09,11,05,58,14.00
2013,09,11,05,59,13.90
2013,09,11,06,00,13.90
2013,09,11,06,01,13.90
2013,09,11,06,02,13.90
2013,09,11,06,03,13.90
2013,09,11,06,04,13.90
2013,09,11,06,05,14.00
2013,09,11,06,06,14.00
2013,09,11,06,07,14.00
2013,09,11,06,08,14.00
2013,09,11,06,09,14.00
2013,09,11,06,10,14.00
2013,09,11,06,11,14.00
2013,09,11,06,12,14.00
2013,09,11,06,13,14.00
2013,09,11,06,14,14.00
2013,09,11,06,15,14.00
2013,09,11,06,16,14.00
2013,09,11,06,17,14.00
2013,09,11,06,18,13.90
2013,09,11,06,19,13.90
2013,09,11,06,20,13.90
2013,09,11,06,21,13.90
2013,09,11,06,22,13.90
2013,09,11,06,23,13.90
2013,09,11,06,24,13.90
2013,09,11,06,25,13.90
2013,09,11,06,26,13.90
2013,09,11,06,27,13.90
2013,09,11,06,28,13.90
2013,09,11,06,29,13.90
2013,09,11,06,30,13.90
2013,09,11,06,31,13.90
2013,09,11,06,32,13.90
2013,09,11,06,33,13.90
2013,09,11,06,34,13.90
2013,09,11,06,35,13.90
2013,09,11,06,36,13.90
2013,09,11,06,37,13.90
2013,09,11,06,38,13.90
2013,09,11,06,39,13.90
2013,09,11,06,40,13.90
2013,09,11,06,41,13.90
2013,09,11,06,42,13.90
2013,09,11,06,43,13.90
2013,09,11,06,44,13.90
2013,09,11,06,45,13.90
2013,09,11,06,46,13.90
2013,09,11,06,47,13.90
2013,09,11,06,48,13.80
2013,09,11,06,49,13.80
2013,09,11,06,50,13.80
2013,09,11,06,51,13.80
2013,09,11,06,52,13.80
2013,09,11,06,53,13.80
2013,09,11,06,54,13.80
2013,09,11,06,55,13.80
2013,09,11,06,56,13.80
2013,09,11,06,57,13.80
2013,09,11,06,58,13.80
2013,09,11,06,59,13.80
2013,09,11,07,00,13.80
2013,09,11,07,01,13.80
2013,09,11,07,02,13.80
2013,09,11,07,03,13.80
2013,09,11,07,04,13.80
2013,09,11,07,05,13.80
2013,09,11,07,06,13.80
2013,09,11,07,07,13.80
2013,09,11,07,08,13.80
2013,09,11,07,09,13.80
2013,09,11,07,10,13.80
2013,09,11,07,11,13.80
2013,09,11,07,12,13.80
2013,09,11,07,13,13.80
2013,09,11,07,14,13.80
2013,09,11,07,15,13.80
2013,09,11,07,16,13.80
2013,09,11,07,17,13.80
2013,09,11,07,18,13.80
2013,09,11,07,19,13.80
2013,09,11,07,20,13.80
2013,09,11,07,21,13.80
2013,09,11,07,22,13.80
2013,09,11,07,23,13.80
2013,09,11,07,24,13.80
2013,09,11,07,25,13.80
2013,09,11,07,26,13.80
2013,09,11,07,27,13.80
2013,09,11,07,28,13.80
2013,09,11,07,29,13.90
2013,09,11,07,30,13.90
2013,09,11,07,31,13.90
2013,09,11,07,32,13.90
2013,09,11,07,33,13.90
2013,09,11,07,34,13.90
2013,09,11,07,35,14.00
2013,09,11,07,36,14.00
2013,09,11,07,37,14.00
2013,09,11,07,38,14.10
2013,09,11,07,39,14.10
2013,09,11,07,40,14.10
2013,09,11,07,41,14.10
2013,09,11,07,42,14.10
2013,09,11,07,43,14.10
2013,09,11,07,44,14.20
2013,09,11,07,45,14.20
2013,09,11,07,46,14.20
2013,09,11,07,47,14.20
2013,09,11,07,48,14.30
2013,09,11,07,49,14.30
2013,09,11,07,50,14.30
2013,09,11,07,51,14.30
2013,09,11,07,52,14.30
2013,09,11,07,53,14.30
2013,09,11,07,54,14.30
2013,09,11,07,55,14.30
2013,09,11,07,56,14.40
2013,09,11,07,57,14.40
2013,09,11,07,58,14.40
2013,09,11,07,59,14.40
2013,09,11,08,00,14.40
2013,09,11,08,01,14.40
2013,09,11,08,02,14.50
2013,09,11,08,03,14.50
2013,09,11,08,04,14.50
2013,09,11,08,05,14.60
2013,09,11,08,06,14.60
2013,09,11,08,07,14.60
2013,09,11,08,08,14.70
2013,09,11,08,09,14.70
2013,09,11,08,10,14.70
2013,09,11,08,11,14.80
2013,09,11,08,12,14.80
2013,09,11,08,13,14.80
2013,09,11,08,14,14.90
2013,09,11,08,15,15.00
2013,09,11,08,16,15.00
2013,09,11,08,17,15.00
2013,09,11,08,18,15.00
2013,09,11,08,19,15.00
2013,09,11,08,20,15.00
2013,09,11,08,21,15.10
2013,09,11,08,22,15.20
2013,09,11,08,23,15.20
2013,09,11,08,24,15.30
2013,09,11,08,25,15.40
2013,09,11,08,26,15.40
2013,09,11,08,27,15.50
2013,09,11,08,28,15.60
2013,09,11,08,29,15.60
2013,09,11,08,30,15.60
2013,09,11,08,31,15.70
2013,09,11,08,32,15.70
2013,09,11,08,33,15.70
2013,09,11,08,34,15.80
2013,09,11,08,35,15.80
2013,09,11,08,36,15.80
2013,09,11,08,37,15.90
2013,09,11,08,38,15.90
2013,09,11,08,39,15.90
2013,09,11,08,40,16.00
2013,09,11,08,41,16.10
2013,09,11,08,42,16.10
2013,09,11,08,43,16.20
2013,09,11,08,44,16.30
2013,09,11,08,45,16.40
2013,09,11,08,46,16.40
2013,09,11,08,47,16.50
2013,09,11,08,48,16.60
2013,09,11,08,49,16.60
2013,09,11,08,50,16.70
2013,09,11,08,51,16.70
2013,09,11,08,52,16.80
2013,09,11,08,53,16.80
2013,09,11,08,54,16.90
2013,09,11,08,55,16.90
2013,09,11,08,56,17.00
2013,09,11,08,57,17.00
2013,09,11,08,58,17.10
2013,09,11,08,59,17.10
2013,09,11,09,00,17.20
2013,09,11,09,01,17.20
2013,09,11,09,02,17.30
2013,09,11,09,03,17.30
2013,09,11,09,04,17.40
2013,09,11,09,05,17.40
2013,09,11,09,06,17.50
2013,09,11,09,07,17.50
2013,09,11,09,08,17.60
2013,09,11,09,09,17.60
2013,09,11,09,10,17.60
2013,09,11,09,11,17.70
2013,09,11,09,12,17.70
2013,09,11,09,13,17.70
2013,09,11,09,14,17.80
2013,09,11,09,15,17.80
2013,09,11,09,16,17.90
2013,09,11,09,17,17.90
2013,09,11,09,18,18.00
2013,09,11,09,19,18.10
2013,09,11,09,20,18.10
2013,09,11,09,21,18.20
2013,09,11,09,22,18.20
2013,09,11,09,23,18.30
2013,09,11,09,24,18.30
2013,09,11,09,25,18.40
2013,09,11,09,26,18.40
2013,09,11,09,27,18.50
2013,09,11,09,28,18.60
2013,09,11,09,29,18.60
2013,09,11,09,30,18.70
2013,09,11,09,31,18.80
2013,09,11,09,32,18.90
2013,09,11,09,33,18.90
2013,09,11,09,34,19.00
2013,09,11,09,35,19.10
2013,09,11,09,36,19.10
2013,09,11,09,37,19.20
2013,09,11,09,38,19.30
2013,09,11,09,39,19.40
2013,09,11,09,40,19.40
2013,09,11,09,41,19.50
2013,09,11,09,42,19.60
2013,09,11,09,43,19.70
2013,09,11,09,44,19.70
2013,09,11,09,45,19.80
2013,09,11,09,46,19.90
2013,09,11,09,47,20.00
2013,09,11,09,48,20.20
2013,09,11,09,49,20.30
2013,09,11,09,50,20.50
2013,09,11,09,51,20.60
2013,09,11,09,52,20.70
2013,09,11,09,53,20.80
2013,09,11,09,54,20.90
2013,09,11,09,55,21.10
2013,09,11,09,56,21.20
2013,09,11,09,57,21.30
2013,09,11,09,58,21.30
2013,09,11,09,59,21.40
2013,09,11,10,00,21.50
2013,09,11,10,01,21.60
2013,09,11,10,02,21.70
2013,09,11,10,03,21.80
2013,09,11,10,04,21.80
2013,09,11,10,05,21.90
2013,09,11,10,06,21.90
2013,09,11,10,07,22.00
2013,09,11,10,08,22.10
2013,09,11,10,09,22.10
2013,09,11,10,10,22.20
2013,09,11,10,11,22.20
2013,09,11,10,12,22.30
2013,09,11,10,13,22.40
2013,09,11,10,14,22.50
2013,09,11,10,15,22.50
2013,09,11,10,16,22.60
2013,09,11,10,17,22.70
2013,09,11,10,18,22.80
2013,09,11,10,19,22.90
2013,09,11,10,20,23.00
2013,09,11,10,21,23.00
2013,09,11,10,22,23.10
2013,09,11,10,23,23.20
2013,09,11,10,24,23.20
2013,09,11,10,25,23.20
2013,09,11,10,26,23.30
2013,09,11,10,27,23.30
2013,09,11,10,28,23.30
2013,09,11,10,29,23.40
2013,09,11,10,30,23.40
2013,09,11,10,31,23.50
2013,09,11,10,32,23.60
2013,09,11,10,33,23.60
2013,09,11,10,34,23.70
2013,09,11,10,35,23.80
2013,09,11,10,36,23.80
2013,09,11,10,37,23.90
2013,09,11,10,38,23.90
2013,09,11,10,39,24.00
2013,09,11,10,40,24.10
2013,09,11,10,41,24.20
2013,09,11,10,42,24.30
2013,09,11,10,43,24.40
2013,09,11,10,44,24.50
2013,09,11,10,45,24.50
2013,09,11,10,46,24.60
2013,09,11,10,47,24.60
2013,09,11,10,48,24.70
2013,09,11,10,49,24.80
2013,09,11,10,50,24.80
2013,09,11,10,51,24.90
2013,09,11,10,52,24.90
2013,09,11,10,53,24.90
2013,09,11,10,54,25.00
2013,09,11,10,55,25.10
2013,09,11,10,56,25.10
2013,09,11,10,57,25.10
2013,09,11,10,58,25.20
2013,09,11,10,59,25.20
2013,09,11,11,00,25.20
2013,09,11,11,01,25.30
2013,09,11,11,02,25.30
2013,09,11,11,03,25.40
2013,09,11,11,04,25.40
2013,09,11,11,05,25.50
2013,09,11,11,06,25.50
2013,09,11,11,07,25.50
2013,09,11,11,08,25.60
2013,09,11,11,09,25.60
2013,09,11,11,10,25.70
2013,09,11,11,11,25.80
2013,09,11,11,12,25.90
2013,09,11,11,13,25.90
2013,09,11,11,14,25.90
2013,09,11,11,15,26.00
2013,09,11,11,16,26.10
2013,09,11,11,17,26.20
2013,09,11,11,18,26.30
2013,09,11,11,19,26.50
2013,09,11,11,20,26.60
2013,09,11,11,21,26.80
2013,09,11,11,22,26.90
2013,09,11,11,23,26.90
2013,09,11,11,24,27.00
2013,09,11,11,25,27.00
2013,09,11,11,26,27.00
2013,09,11,11,27,27.10
2013,09,11,11,28,27.10
2013,09,11,11,29,27.20
2013,09,11,11,30,27.30
2013,09,11,11,31,27.40
2013,09,11,11,32,27.50
2013,09,11,11,33,27.60
2013,09,11,11,34,27.70
2013,09,11,11,35,27.70
2013,09,11,11,36,27.80
2013,09,11,11,37,27.80
2013,09,11,11,38,27.80
2013,09,11,11,39,27.90
2013,09,11,11,40,27.90
2013,09,11,11,41,28.00
2013,09,11,11,42,28.00
2013,09,11,11,43,28.10
2013,09,11,11,44,28.10
2013,09,11,11,45,28.20
2013,09,11,11,46,28.20
2013,09,11,11,47,28.30
2013,09,11,11,48,28.40
2013,09,11,11,49,28.40
2013,09,11,11,50,28.50
2013,09,11,11,51,28.60
2013,09,11,11,52,28.60
2013,09,11,11,53,28.70
2013,09,11,11,54,28.70
2013,09,11,11,55,28.70
2013,09,11,11,56,28.70
2013,09,11,11,57,28.60
2013,09,11,11,58,28.60
2013,09,11,11,59,28.60
2013,09,11,12,00,28.60
2013,09,11,12,01,28.60
2013,09,11,12,02,28.60
2013,09,11,12,03,28.70
2013,09,11,12,04,28.70
2013,09,11,12,05,28.70
2013,09,11,12,06,28.70
2013,09,11,12,07,28.80
2013,09,11,12,08,28.80
2013,09,11,12,09,28.80
2013,09,11,12,10,28.80
2013,09,11,12,11,28.80
2013,09,11,12,12,28.90
2013,09,11,12,13,29.00
2013,09,11,12,14,29.00
2013,09,11,12,15,29.00
2013,09,11,12,16,29.10
2013,09,11,12,17,29.10
2013,09,11,12,18,29.10
2013,09,11,12,19,29.20
2013,09,11,12,20,29.30
2013,09,11,12,21,29.30
2013,09,11,12,22,29.30
2013,09,11,12,23,29.40
2013,09,11,12,24,29.40
2013,09,11,12,25,29.40
2013,09,11,12,26,29.50
2013,09,11,12,27,29.50
2013,09,11,12,28,29.60
2013,09,11,12,29,29.60
2013,09,11,12,30,29.60
2013,09,11,12,31,29.70
2013,09,11,12,32,29.70
2013,09,11,12,33,29.70
2013,09,11,12,34,29.70
2013,09,11,12,35,29.70
2013,09,11,12,36,29.70
2013,09,11,12,37,29.70
2013,09,11,12,38,29.70
2013,09,11,12,39,29.70
2013,09,11,12,40,29.70
2013,09,11,12,41,29.70
2013,09,11,12,42,29.70
2013,09,11,12,43,29.70
2013,09,11,12,44,29.70
2013,09,11,12,45,29.60
2013,09,11,12,46,29.60
2013,09,11,12,47,29.60
2013,09,11,12,48,29.60
2013,09,11,12,49,29.60
2013,09,11,12,50,29.60
2013,09,11,12,51,29.60
2013,09,11,12,52,29.70
2013,09,11,12,53,29.80
2013,09,11,12,54,29.80
2013,09,11,12,55,29.80
2013,09,11,12,56,29.80
2013,09,11,12,57,29.90
2013,09,11,12,58,29.90
2013,09,11,12,59,30.00
2013,09,11,13,00,30.10
2013,09,11,13,01,30.20
2013,09,11,13,02,30.20
2013,09,11,13,03,30.30
2013,09,11,13,04,30.40
2013,09,11,13,05,30.50
2013,09,11,13,06,30.60
2013,09,11,13,07,30.60
2013,09,11,13,08,30.60
2013,09,11,13,09,30.60
2013,09,11,13,10,30.60
2013,09,11,13,11,30.60
2013,09,11,13,12,30.60
2013,09,11,13,13,30.70
2013,09,11,13,14,30.70
2013,09,11,13,15,30.70
2013,09,11,13,16,30.70
2013,09,11,13,17,30.70
2013,09,11,13,18,30.80
2013,09,11,13,19,30.80
2013,09,11,13,20,30.90
2013,09,11,13,21,30.90
2013,09,11,13,22,31.00
2013,09,11,13,23,31.10
2013,09,11,13,24,31.10
2013,09,11,13,25,31.20
2013,09,11,13,26,31.30
2013,09,11,13,27,31.30
2013,09,11,13,28,31.30
2013,09,11,13,29,31.30
2013,09,11,13,30,31.30
2013,09,11,13,31,31.40
2013,09,11,13,32,31.40
2013,09,11,13,33,31.40
2013,09,11,13,34,31.40
2013,09,11,13,35,31.40
2013,09,11,13,36,31.40
2013,09,11,13,37,31.40
2013,09,11,13,38,31.30
2013,09,11,13,39,31.30
2013,09,11,13,40,31.30
2013,09,11,13,41,31.20
2013,09,11,13,42,31.20
2013,09,11,13,43,31.20
2013,09,11,13,44,31.30
2013,09,11,13,45,31.30
2013,09,11,13,46,31.40
2013,09,11,13,47,31.40
2013,09,11,13,48,31.40
2013,09,11,13,49,31.40
2013,09,11,13,50,31.40
2013,09,11,13,51,31.40
2013,09,11,13,52,31.40
2013,09,11,13,53,31.40
2013,09,11,13,54,31.40
2013,09,11,13,55,31.40
2013,09,11,13,56,31.40
2013,09,11,13,57,31.50
2013,09,11,13,58,31.50
2013,09,11,13,59,31.60
2013,09,11,14,00,31.70
2013,09,11,14,01,31.80
2013,09,11,14,02,31.80
2013,09,11,14,03,31.90
2013,09,11,14,04,31.90
2013,09,11,14,05,31.90
2013,09,11,14,06,31.90
2013,09,11,14,07,31.90
2013,09,11,14,08,32.00
2013,09,11,14,09,32.00
2013,09,11,14,10,32.00
2013,09,11,14,11,32.00
2013,09,11,14,12,32.00
2013,09,11,14,13,32.10
2013,09,11,14,14,32.10
2013,09,11,14,15,32.20
2013,09,11,14,16,32.20
2013,09,11,14,17,32.30
2013,09,11,14,18,32.30
2013,09,11,14,19,32.30
2013,09,11,14,20,32.30
2013,09,11,14,21,32.30
2013,09,11,14,22,32.30
2013,09,11,14,23,32.30
2013,09,11,14,24,32.30
2013,09,11,14,25,32.30
2013,09,11,14,26,32.30
2013,09,11,14,27,32.40
2013,09,11,14,28,32.40
2013,09,11,14,29,32.50
2013,09,11,14,30,32.50
2013,09,11,14,31,32.40
2013,09,11,14,32,32.30
2013,09,11,14,33,32.20
2013,09,11,14,34,32.20
2013,09,11,14,35,32.20
2013,09,11,14,36,32.20
2013,09,11,14,37,32.20
2013,09,11,14,38,32.20
2013,09,11,14,39,32.20
2013,09,11,14,40,32.20
2013,09,11,14,41,32.20
2013,09,11,14,42,32.20
2013,09,11,14,43,32.20
2013,09,11,14,44,32.30
2013,09,11,14,45,32.30
2013,09,11,14,46,32.40
2013,09,11,14,47,32.50
2013,09,11,14,48,32.60
2013,09,11,14,49,32.70
2013,09,11,14,50,32.80
2013,09,11,14,51,32.80
2013,09,11,14,52,32.80
2013,09,11,14,53,32.70
2013,09,11,14,54,32.70
2013,09,11,14,55,32.60
2013,09,11,14,56,32.60
2013,09,11,14,57,32.70
2013,09,11,14,58,32.80
2013,09,11,14,59,32.80
2013,09,11,15,00,32.80
2013,09,11,15,01,32.90
2013,09,11,15,02,32.90
2013,09,11,15,03,32.90
2013,09,11,15,04,33.00
2013,09,11,15,05,33.00
2013,09,11,15,06,33.10
2013,09,11,15,07,33.10
2013,09,11,15,08,33.10
2013,09,11,15,09,33.00
2013,09,11,15,10,32.90
2013,09,11,15,11,33.00
2013,09,11,15,12,33.00
2013,09,11,15,13,33.10
2013,09,11,15,14,33.10
2013,09,11,15,15,33.20
2013,09,11,15,16,33.20
2013,09,11,15,17,33.30
2013,09,11,15,18,33.30
2013,09,11,15,19,33.30
2013,09,11,15,20,33.30
2013,09,11,15,21,33.30
2013,09,11,15,22,33.30
2013,09,11,15,23,33.40
2013,09,11,15,24,33.40
2013,09,11,15,25,33.40
2013,09,11,15,26,33.30
2013,09,11,15,27,33.30
2013,09,11,15,28,33.40
2013,09,11,15,29,33.40
2013,09,11,15,30,33.40
2013,09,11,15,31,33.40
2013,09,11,15,32,33.40
2013,09,11,15,33,33.40
2013,09,11,15,34,33.40
2013,09,11,15,35,33.40
2013,09,11,15,36,33.50
2013,09,11,15,37,33.50
2013,09,11,15,38,33.50
2013,09,11,15,39,33.40
2013,09,11,15,40,33.40
2013,09,11,15,41,33.40
2013,09,11,15,42,33.40
2013,09,11,15,43,33.40
2013,09,11,15,44,33.40
2013,09,11,15,45,33.40
2013,09,11,15,46,33.50
2013,09,11,15,47,33.50
2013,09,11,15,48,33.60
2013,09,11,15,49,33.60
2013,09,11,15,50,33.70
2013,09,11,15,51,33.70
2013,09,11,15,52,33.80
2013,09,11,15,53,33.90
2013,09,11,15,54,34.00
2013,09,11,15,55,34.00
2013,09,11,15,56,34.10
2013,09,11,15,57,34.10
2013,09,11,15,58,34.20
2013,09,11,15,59,34.20
2013,09,11,16,00,34.30
2013,09,11,16,01,34.30
2013,09,11,16,02,34.30
2013,09,11,16,03,34.30
2013,09,11,16,04,34.40
2013,09,11,16,05,34.40
2013,09,11,16,06,34.40
2013,09,11,16,07,34.40
2013,09,11,16,08,34.40
2013,09,11,16,09,34.50
2013,09,11,16,10,34.50
2013,09,11,16,11,34.60
2013,09,11,16,12,34.60
2013,09,11,16,13,34.60
2013,09,11,16,14,34.70
2013,09,11,16,15,34.70
2013,09,11,16,16,34.70
2013,09,11,16,17,34.80
2013,09,11,16,18,34.80
2013,09,11,16,19,34.80
2013,09,11,16,20,34.90
2013,09,11,16,21,34.90
2013,09,11,16,22,34.90
2013,09,11,16,23,35.00
2013,09,11,16,24,35.00
2013,09,11,16,25,34.90
2013,09,11,16,26,34.90
2013,09,11,16,27,34.80
2013,09,11,16,28,34.80
2013,09,11,16,29,34.80
2013,09,11,16,30,34.80
2013,09,11,16,31,34.80
2013,09,11,16,32,34.70
2013,09,11,16,33,34.60
2013,09,11,16,34,34.60
2013,09,11,16,35,34.60
2013,09,11,16,36,34.60
2013,09,11,16,37,34.60
2013,09,11,16,38,34.60
2013,09,11,16,39,34.50
2013,09,11,16,40,34.50
2013,09,11,16,41,34.40
2013,09,11,16,42,34.40
2013,09,11,16,43,34.40
2013,09,11,16,44,34.40
2013,09,11,16,45,34.40
2013,09,11,16,46,34.40
2013,09,11,16,47,34.40
2013,09,11,16,48,34.40
2013,09,11,16,49,34.40
2013,09,11,16,50,34.40
2013,09,11,16,51,34.40
2013,09,11,16,52,34.40
2013,09,11,16,53,34.30
2013,09,11,16,54,34.30
2013,09,11,16,55,34.30
2013,09,11,16,56,34.20
2013,09,11,16,57,34.20
2013,09,11,16,58,34.10
2013,09,11,16,59,34.10
2013,09,11,17,00,34.10
2013,09,11,17,01,34.10
2013,09,11,17,02,34.20
2013,09,11,17,03,34.20
2013,09,11,17,04,34.20
2013,09,11,17,05,34.30
2013,09,11,17,06,34.30
2013,09,11,17,07,34.30
2013,09,11,17,08,34.40
2013,09,11,17,09,34.50
2013,09,11,17,10,34.50
2013,09,11,17,11,34.60
2013,09,11,17,12,34.60
2013,09,11,17,13,34.70
2013,09,11,17,14,34.70
2013,09,11,17,15,34.70
2013,09,11,17,16,34.70
2013,09,11,17,17,34.70
2013,09,11,17,18,34.70
2013,09,11,17,19,34.80